This demonstration page uses our WeatherBlox Daily Observations layout. Learn more.

Left ArrowRight Arrow

Hourly Observations for February 28, 2016

Temp ( °F °C ) Dew Point ( °F °C ) Humidity (%) Winds ( mph kmh ) Pressure ( in mb ) Visibility ( mi km ) Precip ( " mm )
12:15 am 00:15 Clear 51 10.3 28 -2.5 41 41 S 6 9 29.62 1003 10 16 N/A
12:35 am 00:35 Clear 49 9.7 28 -2.4 43 43 SSW 8 13 29.62 1003 10 16 N/A
12:55 am 00:55 Clear 54 12.4 27 -3 34 34 WNW 10 17 29.62 1003 10 16 N/A
1:15 am 01:15 Clear 54 12 27 -3 35 35 NW 8 13 29.62 1003 10 16 N/A
1:35 am 01:35 Clear 50 10 28 -2.2 43 43 NW 7 11 29.62 1003 10 16 N/A
1:55 am 01:55 Clear 52 11 29 -1.5 42 42 NW 9 15 29.65 1004 10 16 N/A
2:15 am 02:15 Clear 55 12.8 28 -2.2 35 35 WNW 17 28 29.62 1003 10 16 N/A
2:35 am 02:35 Clear 55 13 27 -2.7 34 34 WNW 20 31 29.62 1003 10 16 N/A
2:55 am 02:55 Clear 55 12.6 27 -3 34 34 NW 18 30 29.62 1003 10 16 N/A
3:15 am 03:15 Clear 53 11.8 27 -2.6 37 37 WNW 18 30 29.65 1004 10 16 N/A
3:35 am 03:35 Clear 53 11.5 29 -1.5 41 41 WNW 21 33 29.65 1004 10 16 N/A
3:55 am 03:55 Clear 53 11.4 32 0.1 46 46 WNW 20 31 29.68 1005 10 16 N/A
4:15 am 04:15 Clear 52 11.2 34 1 50 50 WNW 20 31 29.68 1005 10 16 N/A
4:35 am 04:35 Clear 51 10.8 34 1.2 52 52 NW 21 33 29.68 1005 10 16 N/A
4:55 am 04:55 Clear 51 10.4 35 1.5 54 54 NW 21 33 29.68 1005 10 16 N/A
5:15 am 05:15 Clear 50 10.1 35 1.9 57 57 NW 23 37 29.68 1005 10 16 N/A
5:35 am 05:35 Clear 49 9.6 36 2 59 59 NW 17 28 29.71 1006 10 16 N/A
5:55 am 05:55 Clear 48 8.7 36 2.1 64 64 NW 18 30 29.74 1007 10 16 N/A
6:15 am 06:15 Clear 48 8.7 36 2.4 65 65 NW 18 30 29.74 1007 10 16 N/A
6:35 am 06:35 Clear 47 8.4 37 2.5 67 67 NW 18 30 29.77 1008 10 16 N/A
6:55 am 06:55 Clear 46 8 37 2.5 69 69 NW 16 26 29.77 1008 10 16 N/A
7:15 am 07:15 Sunny 46 7.7 37 2.6 70 70 NW 17 28 29.80 1009 10 16 N/A
7:35 am 07:35 Sunny 46 7.6 37 2.5 70 70 NNW 15 24 29.80 1009 10 16 N/A
7:55 am 07:55 Sunny 47 8.2 37 2.8 69 69 NNW 17 28 29.80 1009 10 16 N/A
8:15 am 08:15 Sunny 48 9 36 2 62 62 NNW 22 35 29.80 1009 10 16 N/A
8:35 am 08:35 Sunny 49 9.3 35 1.4 58 58 NNW 22 35 29.83 1010 10 16 N/A
8:55 am 08:55 Sunny 50 9.8 33 0.8 54 54 NNW 24 39 29.83 1010 10 16 N/A
9:15 am 09:15 Sunny 51 10.5 33 0.8 51 51 NNW 23 37 29.85 1011 10 16 N/A
9:35 am 09:35 Sunny 52 11 34 1.1 51 51 NNW 23 37 29.85 1011 10 16 N/A
9:55 am 09:55 Sunny 53 11.5 33 0.8 48 48 NNW 32 52 29.85 1011 10 16 N/A
10:15 am 10:15 Sunny 52 11.2 34 1.1 50 50 NNW 26 43 29.91 1013 10 16 N/A
10:35 am 10:35 Sunny 52 11.3 33 0.8 49 49 NNW 26 43 29.94 1014 10 16 N/A
10:55 am 10:55 Sunny 53 11.5 32 undefined 45 45 NNW 25 41 29.91 1013 10 16 N/A
11:15 am 11:15 Sunny 54 12 32 0.1 44 44 N 30 48 29.91 1013 10 16 N/A
11:35 am 11:35 Partly Cloudy 54 12.4 32 undefined 43 43 NNW 29 46 29.97 1015 10 16 N/A
11:55 am 11:55 Partly Cloudy 54 12 32 undefined 44 44 NNW 24 39 29.97 1015 10 16 N/A
12:15 pm 12:15 Partly Cloudy 53 11.4 31 -0.3 45 45 N 23 37 29.97 1015 10 16 N/A
12:35 pm 12:35 Partly Cloudy 52 11.2 32 -0.1 46 46 NNW 28 44 29.97 1015 10 16 N/A
12:55 pm 12:55 Partly Cloudy 53 11.4 31 -0.3 45 45 NNW 28 44 29.97 1015 10 16 N/A
1:15 pm 13:15 Partly Cloudy 53 11.7 31 -0.6 43 43 NNW 23 37 29.97 1015 10 16 N/A
1:35 pm 13:35 Partly Cloudy 54 12.1 30 -1.2 40 40 NNW 22 35 29.97 1015 10 16 N/A
1:55 pm 13:55 Partly Cloudy 55 12.7 28 -2.1 36 36 NNW 25 41 29.94 1014 10 16 N/A
2:15 pm 14:15 Sunny 56 13.2 28 -2.4 34 34 NNW 18 30 29.94 1014 10 16 N/A
2:35 pm 14:35 Sunny 56 13.6 24 -4.2 29 29 NW 22 35 29.94 1014 10 16 N/A
2:55 pm 14:55 Sunny 57 13.9 22 -5.8 25 25 NNW 25 41 29.94 1014 10 16 N/A
3:15 pm 15:15 Sunny 57 14.1 21 -6 25 25 NNW 20 31 29.94 1014 10 16 N/A
3:35 pm 15:35 Sunny 57 14.1 20 -6.4 24 24 NW 16 26 29.94 1014 10 16 N/A
3:55 pm 15:55 Sunny 57 14 19 -7.1 23 23 NNW 18 30 29.94 1014 10 16 N/A
4:15 pm 16:15 Sunny 58 14.2 19 -7.4 22 22 NNW 21 33 29.94 1014 10 16 N/A
4:35 pm 16:35 Sunny 57 14 19 -7.3 22 22 NNW 18 30 29.94 1014 10 16 N/A
4:55 pm 16:55 Sunny 57 14 18 -7.7 22 22 NNW 14 22 29.94 1014 10 16 N/A
5:15 pm 17:15 Sunny 57 13.7 19 -7.5 22 22 NNW 16 26 29.94 1014 10 16 N/A
5:35 pm 17:35 Sunny 56 13.3 19 -7.5 23 23 NNW 9 15 29.97 1015 10 16 N/A
5:55 pm 17:55 Sunny 55 12.6 19 -7.2 25 25 N 9 15 29.97 1015 10 16 N/A
6:15 pm 18:15 Sunny 51 10.7 19 -7 28 28 N 5 7 30.00 1016 10 16 N/A
6:35 pm 18:35 Clear 49 9.4 19 -7.1 31 31 N N/A 30.03 1017 10 16 N/A
6:55 pm 18:55 Clear 44 6.9 19 -7.5 35 35 N N/A 30.03 1017 10 16 N/A
7:15 pm 19:15 Clear 43 6.3 18 -7.6 37 37 N N/A 30.03 1017 10 16 N/A
7:35 pm 19:35 Clear 43 5.9 19 -7.2 39 39 N N/A 30.09 1019 10 16 N/A
7:55 pm 19:55 Clear 42 5.6 20 -6.6 41 41 N N/A 30.03 1017 10 16 N/A
8:15 pm 20:15 Clear 37 2.7 21 -6 53 53 N N/A 30.06 1018 10 16 N/A
8:35 pm 20:35 Clear 38 3.2 21 -6.2 51 51 N N/A 30.06 1018 10 16 N/A
8:55 pm 20:55 Clear 39 3.9 20 -6.5 47 47 N N/A 30.06 1018 10 16 N/A
9:15 pm 21:15 Clear 38 3.4 20 -6.5 49 49 SSE 3 6 30.06 1018 10 16 N/A
9:35 pm 21:35 Clear 37 2.9 20 -6.6 50 50 S 3 6 30.06 1018 10 16 N/A
9:55 pm 21:55 Clear 38 3.5 20 -6.6 48 48 S 6 9 30.06 1018 10 16 N/A
10:15 pm 22:15 Clear 39 3.8 20 -6.7 47 47 S 8 13 30.06 1018 10 16 N/A
10:35 pm 22:35 Clear 40 4.5 20 -6.4 45 45 SSW 9 15 30.06 1018 10 16 N/A
10:55 pm 22:55 Clear 39 3.8 21 -6.1 49 49 SSW 12 19 30.03 1017 10 16 N/A
11:15 pm 23:15 Clear 41 5.2 21 -6 45 45 SSW 12 19 30.03 1017 10 16 N/A
11:35 pm 23:35 Clear 41 5 21 -6 45 45 SSW 10 17 30.03 1017 10 16 N/A
11:55 pm 23:55 Clear 40 4.3 22 -5.7 49 49 S 8 13 30.03 1017 10 16 N/A

Powered by AerisWeather